Location: L�Adrech
(44.2500°N, 6.4167°E)
Time: 02:58:00
(UTC+00:00)

STARLINK-1009 - Pass Details

Date: 07 June 2020
Orbit: 549 x 550 km, 53.0° (Epoch: 04 July)

Event Time Altitude Azimuth Distance (km) Brightness Sun altitude
Exits shadow 02:59:56 10° 236° (SW) 1,812 5.6 -8.0°
Maximum altitude 03:04:04 87° 321° (NW) 554 3.6 -7.5°
Drops below altitude 10° 03:08:13 10° 56° (NE) 1,824 8.0 -6.9°
Sets 03:10:27 0° 56° (ENE) 2,720 9.6 -6.6°
